FENGYUN 3D (43010 NORAD) Tracking and Keplerian Element Data

This shows tracking and keplerian element data for the satellite.

Feedback or suggestion? Click here.




ElementValue
Catalog43010
NameFENGYUN 3D
Epoch Orbit12350
Epoch Day94.10045534
Epoch Year2020
RAAN34.3142
Inclination98.7449
Eccentricity9.7E-05
Argument of Perigee348.9133
Mean Anonmoly11.2027
Mean Motion14.19739111
Decay Rate-4E-08
L11 43010U 17072A 20094.10045534 -.00000004 00000-0 18838-4 0 9999
L22 43010 98.7449 34.3142 0000970 348.9133 11.2027 14.19739111123506

Live tracking and technical data element details for FENGYUN 3D (NORAD 43010). FENGYUN 3D can be tracked NOW for your location showing map with azimuth and elevation plus other details from your city location.

Track the satellite on the map from your city or location and see movement details for azimuth, elevation, latitude, longitude, range, height, and movement on the map or in text.







IsCatalogInMostPopularTable: catalog: 43010, numindb: 409
Update: records affected: 1



GetName: 43010 FENGYUN 3D

Hit Count: updated at: Tue, 07 Apr 2020 22:41:05 GMT